Regional Weather Roundup
Issued by NWS

Home | Current Version | Previous Version | Text Only | Print | Product List | Glossary On
Versions: 1 2 3 4 5 6 7 8 9 10 11 12 13 14 15 16 17 18 19 20 21 22 23 24 25 26 27 28 29 30 31 32 33 34 35 36 37 38 39 40 41 42 43 44 45 46 47 48 49 50
000
ASUS44 KFWD 052203
RWRTX
NORTH TEXAS HOURLY WEATHER ROUNDUP
NATIONAL WEATHER SERVICE FORT WORTH TX
500 PM CDT SUN JUL 05 2015

NOTE: "FAIR" INDICATES FEW OR NO CLOUDS BELOW 12,000 FEET WITH NO
SIGNIFICANT WEATHER AND/OR OBSTRUCTIONS TO VISIBILITY.

TXZ118-119-052300-
DALLAS/FORT WORTH METROPLEX

CITY           SKY/WX    TMP DP  RH WIND       PRES   REMARKS
DFW AIRPORT    MOSUNNY   91  67  44 S20G25    29.93F HX  94
DALLAS LOVE    MOSUNNY   93  66  40 S18G24    29.94F HX  96
FTW MEACHAM    PTSUNNY   92  69  47 S14G23    29.93F HX  97
DAL-EXECUTIVE  MOSUNNY   90  68  48 S13G18    29.95F HX  94
FTW-ALLIANCE   MOSUNNY   91  70  49 S16G24    29.93F HX  96
FTW-NAS-JRB    MOSUNNY   92  69  47 S21G29    29.94F HX  97
FTW-SPINKS     MOSUNNY   91  68  46 SE20      29.96F HX  95
ARLINGTON      SUNNY    N/A N/A N/A S20       29.94F
GRAND PRAIRIE  SUNNY     91  70  49 S14G21    29.99  HX  97
MESQUITE         N/A     91  70  49 SE13      29.96F HX  97
LANCASTER      SUNNY     91  65  42 S12G20    29.97F HX  93
$$

TXZ091>094-102>105-117-120-121-131>134-052300-
NORTH CENTRAL TEXAS

CITY           SKY/WX    TMP DP  RH WIND       PRES   REMARKS
SHRMAN/DENISON MOSUNNY   94  70  45 S14       29.95F HX  99
BRIDGEPORT     MOSUNNY   92  69  45 S14G21    29.95F HX  97
DECATUR        SUNNY     92  64  39 S12G23    29.95F HX  93
DENTON         MOSUNNY   91  70  49 S17G26    29.93F HX  96
MCKINNEY       MOSUNNY   91  68  46 S22       29.94F HX  95
ROCKWALL       MOSUNNY   90  70  52 S15G21    29.95F HX  95
TERRELL        MOSUNNY   91  70  49 S15G25    29.96F HX  96
WAXAHACHIE     MOSUNNY   91  69  47 S16G24    29.97F HX  96
CLEBURNE         N/A     91  72  52 S14G21    29.97F HX  98
$$

TXZ083>090-098>101-113>116-127>130-139>142-154-155-052300-
WESTERN NORTH TEXAS

CITY           SKY/WX    TMP DP  RH WIND       PRES   REMARKS
WICHITA FALLS  PTSUNNY   93  67  42 S18G24    29.89F HX  96
WF-KICKAPOO    MOSUNNY   96  63  34 S17G24    29.91F HX  97
VERNON         SUNNY     98  56  24 S16       29.89F HX  96
ABILENE        MOSUNNY   93  65  39 S17G24    29.94F HX  95
ABILENE-DYESS  MOSUNNY   92  69  46 S18       29.92F HX  96
BRECKENRIDGE   SUNNY     94  62  35 S16G25    29.92F HX  94
GRAHAM         MOSUNNY   92  67  42 S10G17    29.91F HX  95
MINERAL WELLS  MOSUNNY   91  68  46 S15G24    29.93F HX  95
STEPHENVILLE   MOSUNNY   91  65  42 S14       29.99F HX  92
COMANCHE       MOSUNNY   91  67  44 S15       29.96F HX  94
COLEMAN        SUNNY     92  66  42 S14G20    29.96F HX  94
BRADY          PTSUNNY   90  63  40 N13       29.97F HX  90
$$

TXZ143>147-156>162-174-175-052300-
CENTRAL TEXAS

CITY           SKY/WX    TMP DP  RH WIND       PRES   REMARKS
WACO           MOSUNNY   91  70  49 S18       29.96F HX  96
WACO-MCGREGOR  MOSUNNY   91  72  52 S15G24    29.96F HX  98
CORSICANA      LGT RAIN  92  70  48 S15       29.98F HX  97
MEXIA          MOSUNNY   90  73  57 SE13G26   29.97F HX  97
HEARNE         MOSUNNY   91  74  57 SE10      29.99F HX  99
CAMERON        MOSUNNY   92  73  53 S12G17    29.97F HX 100
TEMPLE         MOSUNNY   90  70  51 S17       29.96F HX  95
KILLEEN        SUNNY     90  71  52 S18       29.96F HX  96
KILLEEN-SKYLRK MOSUNNY   91  70  49 SE13G25   29.96F HX  97
FORT HOOD      MOSUNNY   91  70  51 S13       29.96F HX  96
GATESVILLE     MOSUNNY   91  70  49 S13G20    29.98F HX  97
HAMILTON       MOSUNNY   92  67  43 S15G22    29.97F HX  94
LAMPASAS       SUNNY     93  72  49 S14       29.96F HX 100
$$

TXZ095>097-106>112-122>126-135>138-148>153-164>167-052300-
EAST TEXAS

CITY           SKY/WX    TMP DP  RH WIND       PRES   REMARKS
PARIS          MOSUNNY   91  73  55 SW12G17   29.97F HX 100
SULPHUR SPRNGS MOSUNNY   92  69  45 SW14G21   29.99S HX  97
GILMER         PTSUNNY   90  71  53 SW6       29.98S HX  96
MINEOLA        PTSUNNY   91  72  52 S8        29.98F HX  98
TYLER          SUNNY     92  69  47 S16       29.98F HX  97
LONGVIEW       MOSUNNY   96  73  47 SW9       29.97F HX 105
MARSHALL       SUNNY     94  75  54 SW8       30.00F HX 105
ATHENS         SUNNY     90  70  51 S10       29.97F HX  95
PALESTINE      MOSUNNY   92  70  49 S10G16    30.00F HX  97
JACKSONVILLE   MOSUNNY   91  68  46 S10       30.03S HX  95
HENDERSON      MOSUNNY   89  72  56 S5        30.00S HX  97
NACOGDOCHES    MOSUNNY  N/A N/A N/A S13       29.99F
LUFKIN         SUNNY     94  71  47 SW10      30.00F HX 101
$$

SUPPLEMENTAL OBSERVATIONS (CENTRAL)

CITY           SKY/WX    TMP DP  RH WIND       PRES   REMARKS
$$

SUPPLEMENTAL OBSERVATIONS (WEST)

CITY           SKY/WX    TMP DP  RH WIND       PRES   REMARKS
$$

SUPPLEMENTAL OBSERVATIONS (EAST)

CITY           SKY/WX    TMP DP  RH WIND       PRES   REMARKS
$$

SUPPLEMENTAL OBSERVATIONS ARE A COLLECTION OF AUTOMATED INSTRUMENTS
THAT ARE MAINTAINED BY A VARIETY OF FEDERAL AND STATE AGENCIES.
CERTAIN ELEMENTS...SUCH AS HUMIDITY VALUES AND SUSTAINED WIND
SPEEDS...MAY BE APPROXIMATED.




USA.gov is the U.S. government's official web portal to all federal, state and local government web resources and services.